Hourly Data Report for October 14, 2014

All times are specified in Local Standard Time (LST). Add 1 hour to adjust for Daylight Saving Time where and when it is observed.

RANKIN INLET A
NUNAVUT

62°48'38.000" N
92°06'53.000" W
32.30 m
2303405
71083
YRT

Download Data

Hourly Data (October 2014)
Hourly Data Report for October 14, 2014
Temp Definition
°C
Dew Point Temp Definition
°C
Rel Hum Definition
%
Wind Dir Definition
10's deg

Wind Spd Definition
km/h
Visibility Definition
km
Stn Press Definition
kPa
Hmdx Definition


Wind Chill Definition


Weather Definition


TIME
00:00 Legend Double Dagger -3.0 -4.6 89 30 22 24.1 100.52   -9 Cloudy
01:00 Legend Double Dagger -3.1 -4.2 92 29 16 24.1 100.54   -8 Snow
02:00 Legend Double Dagger -3.2 -4.5 91 29 21 24.1 100.58   -9 Snow
03:00 Legend Double Dagger -3.2 -4.3 92 30 18 24.1 100.62   -9 Snow
04:00 Legend Double Dagger -3.4 -4.4 93 31 14 24.1 100.65   -8 Snow
05:00 Legend Double Dagger -3.3 -4.4 92 30 12 24.1 100.68   -8 Snow
06:00 Legend Double Dagger -3.4 -4.7 91 31 11 24.1 100.71   -8 Snow
07:00 Legend Double Dagger -3.6 -4.9 91 30 10 24.1 100.72   -8 Snow
08:00 Legend Double Dagger -3.2 -4.3 92 31 10 24.1 100.71   -7 Snow
09:00 Legend Double Dagger -2.6 -4.3 88 30 13 24.1 100.74   -7 Mostly Cloudy
10:00 Legend Double Dagger -2.3 -4.3 86 29 9 24.1 100.76   -6 Snow
11:00 Legend Double Dagger -1.9 -4.3 84 30 12 24.1 100.77   -6 Snow
12:00 Legend Double Dagger -1.6 -4.6 80 30 13 24.1 100.78   -6 Mostly Cloudy
13:00 Legend Double Dagger -2.2 -5.7 77 29 14 24.1 100.77   -7 LegendNANA
14:00 Legend Double Dagger -1.8 -4.6 81 29 12 24.1 100.79   -6 LegendNANA
15:00 Legend Double Dagger -1.6 -5.1 77 32 14 24.1 100.80   -6 Mostly Cloudy
16:00 Legend Double Dagger -2.2 -5.5 78 33 16 24.1 100.83   -7 LegendNANA
17:00 Legend Double Dagger -2.8 -5.5 82 32 16 24.1 100.84   -8 LegendNANA
18:00 Legend Double Dagger -4.9 -6.9 86 31 15 24.1 100.86   -10 Mostly Cloudy
19:00 Legend Double Dagger -4.6 -6.9 84 31 20 24.1 100.85   -11 LegendNANA
20:00 Legend Double Dagger -5.4 -7.1 88 31 17 24.1 100.84   -11 LegendNANA
21:00 Legend Double Dagger -6.1 -7.6 89 30 17 24.1 100.85   -12 Mainly Clear
22:00 Legend Double Dagger -6.5 -7.9 90 29 18 24.1 100.87   -13 LegendNANA
23:00 Legend Double Dagger -6.2 -7.6 90 29 16 24.1 100.88   -12 LegendNANA

Notes on Data Quality.

Legend

  • E = Estimated
  • M = Missing
  • NA = Not Available
  • ‡ = Partner data that is not subject to review by the National Climate Archives
Date modified: